CAPE
1 1 1 1 2 2 1 1 1 1 0 0 0 0 0 0 0 0 0 0 0 0 0 0 0 0 0 9 24 146 67 151 99 103 232 216 87 216 583 532 727 830 1090 986 711
1 1 1 2 2 1 1 1 1 0 1 0 0 0 0 0 0 0 52 530 13 9 0 0 0 0 9 1 13 59 26 25 72 103 103 165 137 341 789 542 818 1251 1118 940 633
1 1 1 1 1 2 1 1 0 0 0 0 0 0 0 0 0 0 548 282 389 13 0 0 0 0 10 15 14 24 23 22 14 25 39 169 362 375 493 268 548 1264 1373 855 702
3 1 1 1 2 1 1 1 0 0 0 0 0 0 0 0 0 0 0 0 188 3 0 0 0 8 38 37 5 17 0 4 3 0 39 75 97 223 280 476 634 1074 1429 933 819
2 2 2 1 1 1 1 1 0 0 0 0 0 0 0 0 0 0 0 0 0 0 0 0 1 12 46 16 0 15 0 0 0 0 15 45 127 111 283 640 757 1275 1381 1062 863
9 5 1 1 1 2 1 0 0 0 0 0 0 0 0 0 0 0 0 0 0 0 0 0 0 0 12 7 9 0 0 1 0 0 5 9 32 173 240 466 951 1361 1367 1140 920
9 6 1 1 1 2 1 0 0 0 0 0 0 0 0 0 0 0 0 0 0 0 0 0 0 1 6 0 0 0 3 11 1 0 2 0 50 72 320 513 968 1254 1410 1272 1139
9 8 1 1 1 1 0 0 0 0 0 0 0 0 0 0 0 0 0 0 0 0 0 0 0 0 3 0 0 1 2 54 0 0 3 0 52 66 304 464 737 1068 1350 1351 1357
7 7 4 1 1 1 0 0 0 0 0 0 0 0 0 0 0 0 0 0 0 0 0 0 0 2 0 9 27 0 46 0 2 0 0 0 7 60 0 175 350 851 1231 1323 1356
10 7 3 1 1 0 0 0 0 0 0 0 0 0 0 0 0 0 0 0 0 0 0 0 1 15 19 37 12 2 36 0 0 0 0 0 0 0 4 19 157 453 923 1279 1284
11 8 2 1 1 0 0 0 0 0 0 0 0 0 0 0 0 0 0 0 0 0 0 0 14 39 20 0 0 0 0 0 0 0 0 0 0 0 0 0 0 139 606 1025 1291
8 7 3 1 0 0 0 0 0 0 0 0 0 0 0 0 0 0 0 0 0 0 0 4 1 3 0 0 0 0 0 0 0 0 0 0 0 0 0 0 0 20 483 733 1087
7 7 2 1 0 0 0 0 0 0 0 0 0 0 0 0 0 0 0 0 0 0 0 1 22 0 0 0 0 0 0 0 0 0 0 0 7 0 10 95 106 67 414 517 940
6 5 1 0 0 0 0 0 0 0 0 0 0 0 0 0 0 0 0 0 0 0 0 0 3 0 0 0 0 5 0 0 0 0 36 0 40 12 42 148 95 136 287 400 664
8 5 2 3 0 0 0 0 0 0 0 0 0 0 0 0 0 0 0 0 0 0 0 0 0 0 0 0 0 0 0 0 0 0 9 22 107 75 58 375 406 441 376 227 478
7 4 1 0 0 0 0 0 0 0 5 0 0 0 0 0 0 0 0 0 0 0 0 0 0 0 0 0 0 0 0 0 0 0 29 40 18 103 105 303 349 520 661 813 645
2 0 1 0 0 0 0 0 0 80 0 0 0 0 0 0 0 0 0 0 0 0 0 0 0 0 0 0 0 0 0 6 107 78 68 29 0 179 224 326 442 647 834 976 918
0 0 0 0 0 0 0 0 94 4 0 0 0 0 0 0 0 0 0 0 0 0 0 0 0 0 0 0 0 21 6 18 186 121 64 37 115 266 182 236 532 780 1241 1277 1431
0 0 0 0 0 0 0 49 241 1 0 0 0 0 0 0 0 0 0 0 0 0 0 0 21 0 0 0 0 29 6 16 5 55 23 112 77 34 71 131 520 794 1453 1567 1773
0 0 0 0 0 0 0 0 100 45 30 0 0 0 0 0 0 0 0 0 0 0 0 1 86 0 0 0 0 0 3 44 125 209 308 130 144 432 338 83 483 613 1521 1719 1730
0 0 0 0 0 0 5 11 48 0 9 15 15 0 0 0 0 0 0 0 0 0 0 0 0 25 0 0 7 0 0 13 47 56 159 219 102 116 110 267 323 440 1268 1612 2106
0 0 0 0 0 0 0 1 0 0 1 59 64 15 1 0 0 0 0 0 0 0 0 0 0 47 35 9 0 0 3 12 141 110 206 112 186 215 180 102 280 320 748 1583 1830
145 0 0 0 0 0 0 0 0 0 76 75 29 44 10 3 2 5 0 0 0 0 7 9 0 17 111 69 1 0 0 14 33 58 64 74 198 68 0 0 0 117 576 1258 1611
355 0 0 0 0 0 0 0 0 0 33 65 91 77 89 153 206 136 93 2 0 0 0 0 1 32 117 83 154 47 19 13 7 39 67 67 43 93 10 0 0 0 12 244 1597
320 413 0 0 0 0 0 0 0 21 29 65 125 116 115 224 178 210 212 47 8 0 4 15 80 87 176 59 17 1 16 24 23 10 6 1 0 2 0 6 4 76 127 429 1088
77 318 64 187 0 0 0 0 12 47 75 74 151 64 116 248 212 206 128 155 233 101 75 62 76 33 33 15 16 8 0 0 0 0 0 0 0 3 14 9 11 294 372 727 986
0 15 105 38 24 0 0 0 16 62 46 138 54 69 67 46 7 5 0 4 25 52 55 61 62 56 67 22 5 7 0 0 0 0 0 0 1 124 39 10 76 401 520 594 685
CIN
0 0 0 0 0 0 0 0 0 0 0 0 0 0 0 0 0 0 0 0 0 0 -1 0 0 0 0 0 -76 -49 0 -65 -105 -92 -27 -22 -65 0 -2 0 0 0 0 0 -17
0 0 0 0 0 0 0 0 0 0 0 0 0 0 0 0 0 0 -292 -443 -374 -559 0 0 0 0 0 0 0 -1 0 0 -93 -94 -91 -29 -20 -1 -1 -1 0 0 0 -9 -14
0 0 0 0 0 0 0 0 0 0 0 0 0 0 0 0 0 0 -445 -540 -497 -230 0 0 0 0 0 0 0 0 0 0 0 0 -1 -6 -1 -1 -7 0 0 -1 -15 -23 -12
0 0 0 0 0 0 0 0 0 0 0 0 0 0 0 0 0 0 0 0 -573 -26 0 0 0 0 -1 -1 0 0 0 0 0 0 -1 -1 -2 -2 0 -1 0 -4 -26 -31 -21
0 0 0 0 0 0 0 0 0 0 0 0 0 0 0 0 0 0 0 -86 0 0 0 0 0 -1 -1 0 0 0 0 0 0 0 0 0 -1 -5 0 -1 0 -11 -36 -34 -27
-1 0 0 0 0 0 0 0 0 0 0 0 0 0 0 0 0 0 0 0 0 0 0 0 0 0 -1 0 0 0 0 0 0 0 0 0 -1 -5 -2 0 -5 -14 -18 -22 -13
0 0 0 0 0 0 0 0 0 0 0 0 0 0 0 0 0 0 0 0 0 0 0 0 0 -1 0 0 0 0 0 0 0 0 0 0 -6 -4 -2 -3 0 -1 -7 -7 -6
0 0 0 0 0 0 0 0 0 0 0 0 0 0 0 0 0 0 0 0 0 0 0 0 0 0 0 0 0 0 0 0 0 0 -1 0 -4 -1 -3 -7 0 0 0 -11 -4
-1 -1 0 0 0 0 0 0 0 0 0 0 0 0 0 0 0 0 0 0 0 0 0 0 0 0 0 0 0 0 -2 0 0 0 0 0 0 -6 0 -4 0 0 0 -4 -10
0 -1 0 0 0 0 0 0 0 0 0 0 0 0 0 0 0 0 0 0 0 0 0 0 0 0 0 0 -1 0 0 0 0 0 0 0 0 0 0 -1 -5 0 0 0 -3
0 -1 0 0 0 0 0 0 0 0 0 0 0 0 0 0 0 0 0 0 0 0 0 0 0 0 -2 0 0 0 0 0 0 0 0 0 0 0 0 0 0 -9 0 0 0
-1 -1 0 0 0 0 0 0 0 0 0 0 0 0 0 0 0 0 0 0 0 0 0 0 0 0 0 0 0 0 0 0 0 0 0 0 0 0 0 0 0 -3 -9 -1 0
-1 0 0 0 0 0 0 0 0 0 0 0 0 0 0 0 0 0 0 0 0 0 0 0 0 0 0 0 0 0 0 0 0 0 0 0 0 0 -17 -10 -15 -18 -13 -7 -1
0 -1 0 0 0 0 0 0 0 0 0 0 0 0 0 0 0 0 0 0 0 0 0 0 0 0 0 0 0 0 0 0 0 0 0 0 -37 -13 -15 -1 -2 -6 -1 0 0
0 0 0 0 0 0 0 0 0 0 0 0 0 0 0 0 0 0 0 0 0 0 0 0 0 0 0 0 0 0 0 0 0 0 0 -3 -5 -1 -4 0 0 0 -2 0 0
0 0 0 0 0 0 0 0 0 0 -6 0 0 0 0 0 0 0 0 0 0 0 0 0 0 0 0 0 0 0 0 0 0 0 -1 -4 -13 -79 -67 -3 0 -1 -1 -7 -1
-1 -1 0 0 0 0 0 0 0 -37 0 0 0 0 0 0 0 0 0 0 0 0 0 0 0 0 0 0 0 0 0 -1 0 0 -27 -2 0 -6 0 0 0 -3 0 -9 -6
0 0 0 0 0 0 0 0 -29 -1 0 0 0 0 0 0 0 0 0 0 0 0 0 0 0 0 0 0 0 0 0 -6 -1 -3 -14 -1 0 -16 -4 -5 0 0 0 -7 -12
0 0 0 0 0 0 0 -47 0 0 0 0 0 0 0 0 0 0 0 0 0 0 0 0 0 0 0 0 0 0 -7 -2 0 0 -6 -1 -1 -4 -11 0 0 0 0 -1 0
0 0 0 0 0 0 0 0 -26 -141 -107 0 0 0 0 0 0 0 0 0 0 0 0 0 0 0 0 0 0 0 -5 -1 -1 -1 0 -9 0 0 -1 -14 -1 0 -1 0 -15
0 0 0 0 0 0 -81 -54 -104 0 -142 -75 -36 0 -6 0 0 0 0 0 0 0 0 0 0 -2 0 0 -2 0 0 -1 0 -1 0 0 -7 -5 -17 -18 -15 0 -2 0 -1
0 0 0 0 0 0 0 -194 0 0 -154 -83 -68 -60 -75 0 0 0 0 0 0 0 0 0 0 -1 0 -3 0 0 0 -1 0 -2 -1 0 0 -30 -34 -23 -23 -12 0 0 0
-77 0 0 0 0 0 0 0 0 0 -73 -80 -91 -66 -89 -18 -20 -13 -1 0 0 0 -6 -4 0 -8 0 -3 0 0 0 0 0 0 -2 -3 0 -58 0 0 0 -27 -3 -1 -8
-48 0 0 0 0 0 0 0 0 0 -137 -100 -52 -64 -34 -7 -1 -9 -14 -112 -35 0 0 0 0 -3 -1 -43 -2 -17 -1 0 0 -3 -4 -4 0 -1 -1 0 0 0 -89 -11 -4
-31 0 0 0 0 0 0 0 0 -146 -146 -94 -36 -13 -2 0 0 0 -2 -64 -96 0 -37 -8 -2 -2 0 -1 -6 -1 0 0 0 0 0 0 0 0 0 -114 -83 -104 -75 -3 -1
-90 -11 -77 -19 0 0 0 0 -166 -96 -81 -61 -1 -23 -1 0 -1 -3 -20 -18 -2 -21 -14 -9 -2 0 -9 0 0 0 0 0 0 0 0 0 0 -3 -145 -165 -155 -21 -10 0 -1
0 -31 -30 -20 -85 0 0 0 -154 -88 -128 -30 -41 -22 -16 -81 -48 -13 0 -3 -24 -8 0 0 -2 -2 -5 0 0 -17 0 0 0 0 0 0 -1 -41 -86 -88 -82 -9 -10 -13 -1
Wind_Speed
12 12 12 12 12 12 12 13 13 14 14 15 16 16 17 18 23 9 13 6 6 5 10 19 11 1 12 7 1 9 4 8 13 12 12 4 11 8 2 8 9 2 11 20 22
12 12 12 12 12 12 12 13 13 14 15 15 16 16 17 17 15 15 4 8 6 5 14 9 7 8 7 5 0 8 8 9 7 13 10 7 8 2 3 6 12 12 13 19 22
13 12 12 12 12 12 12 13 13 13 14 16 17 17 17 16 13 4 6 6 6 8 16 12 10 11 6 6 6 8 8 7 6 10 5 6 7 3 6 14 12 13 14 18 20
13 12 11 12 12 12 12 13 13 13 15 16 17 17 18 11 6 10 6 3 8 11 14 11 8 12 4 3 2 12 8 5 4 5 2 5 4 7 7 7 9 15 17 18 18
13 12 11 11 11 12 12 12 12 13 14 15 17 16 13 11 8 11 3 8 11 11 8 7 8 8 6 4 4 8 5 5 7 1 1 6 0 6 3 8 11 16 16 17 16
13 12 11 11 11 11 12 12 12 13 14 15 16 18 9 16 8 6 2 6 10 10 4 7 6 10 7 4 7 2 2 5 5 4 1 3 3 2 10 10 13 15 16 16 16
13 12 11 10 10 11 11 12 13 13 14 14 13 8 12 10 1 7 6 8 3 10 8 0 8 14 4 9 3 7 11 4 8 6 4 6 10 6 10 9 12 13 14 15 15
13 12 11 10 10 10 11 12 13 14 14 14 10 11 13 8 5 7 10 11 7 7 9 5 8 12 12 0 10 10 8 3 10 2 6 10 1 12 11 7 12 13 13 13 16
14 12 10 10 9 10 10 13 16 14 12 11 10 11 13 8 13 14 11 11 11 7 6 6 14 12 8 16 14 6 7 5 5 3 5 4 10 6 4 8 7 11 16 13 14
13 12 10 9 9 9 11 10 9 11 9 10 10 9 10 14 14 6 10 7 10 11 11 13 13 13 11 12 9 9 8 5 2 4 8 11 7 6 7 11 9 9 13 15 15
13 11 11 9 8 8 11 7 8 9 14 9 10 12 4 4 2 11 12 14 11 11 15 13 12 13 9 10 9 5 9 9 4 3 5 11 10 8 7 3 8 9 12 17 16
13 12 10 8 7 8 9 15 10 10 12 17 5 10 4 4 10 15 11 14 16 16 16 11 14 5 6 4 9 10 8 6 3 3 8 9 8 5 4 3 3 6 11 15 16
13 11 9 7 6 6 13 10 5 7 9 16 12 13 10 10 11 15 15 17 15 18 17 14 8 10 5 11 10 15 2 10 11 10 14 8 9 9 8 4 6 5 10 13 15
13 11 9 5 5 10 13 12 7 6 8 14 12 10 8 10 7 14 18 12 11 18 12 17 16 2 9 11 10 15 10 8 10 13 5 2 3 10 10 12 10 12 12 13 14
13 10 8 9 13 10 7 4 7 6 8 16 15 9 12 12 16 9 14 7 11 11 6 10 12 9 13 14 5 12 7 8 9 13 13 9 6 8 15 12 8 7 3 6 14
13 10 6 8 8 7 3 3 7 10 5 11 11 14 14 13 10 13 11 10 7 7 11 17 3 10 14 10 4 10 10 15 12 12 9 5 6 3 7 9 6 4 2 2 6
13 8 8 9 1 1 5 8 9 11 17 12 17 18 17 12 10 15 16 16 10 10 14 16 16 12 14 15 14 10 18 10 10 8 6 7 8 10 9 9 9 5 7 6 1
12 4 14 10 5 7 6 11 13 10 14 16 14 16 13 13 13 15 14 14 15 11 15 10 17 20 19 13 20 14 16 8 6 7 9 6 4 5 6 5 7 6 11 7 8
8 7 8 8 10 6 10 13 3 9 7 12 16 15 13 12 5 12 15 14 13 12 15 7 5 4 3 10 13 9 9 10 12 8 7 2 7 8 9 6 7 6 13 8 10
7 8 8 8 9 8 10 14 4 9 6 8 13 13 13 16 10 12 13 11 8 9 16 2 5 9 9 7 10 15 11 7 5 2 8 7 4 10 7 5 7 6 10 9 8
8 7 8 9 7 8 11 4 3 6 7 8 11 10 9 14 16 14 14 5 9 13 10 13 10 9 7 11 11 10 13 9 9 9 8 9 8 7 5 7 4 6 9 5 9
10 5 9 8 9 10 12 2 4 5 8 6 9 7 9 14 14 12 4 2 4 5 12 13 11 11 14 7 6 12 15 11 9 6 9 7 4 11 8 7 5 5 4 9 7
7 7 7 9 8 9 10 6 7 7 8 9 10 7 2 7 7 6 5 9 2 9 5 3 9 13 12 15 13 11 15 11 16 12 12 9 3 7 8 2 6 9 8 3 1
8 6 7 9 14 14 13 13 12 6 4 6 3 6 7 4 5 6 6 3 3 5 9 5 15 18 12 3 12 8 9 8 13 12 14 13 18 4 4 4 6 7 10 10 4
7 2 6 9 12 12 7 11 12 9 9 8 7 14 14 9 9 9 8 9 6 6 5 10 13 16 13 9 6 15 16 14 13 14 15 17 18 14 10 10 8 6 7 5 3
7 6 4 7 6 11 7 10 14 10 5 13 11 10 4 7 1 5 2 2 5 11 11 9 12 11 14 16 19 16 15 17 16 18 17 16 14 9 10 4 3 3 5 1 3
6 5 7 5 9 9 11 15 12 3 3 12 8 7 7 10 7 7 5 7 5 7 10 8 12 13 15 14 19 15 15 12 14 11 12 14 5 6 1 1 2 1 1 2 2
Wind_Direction
324 321 318 318 318 319 322 324 328 329 330 327 322 317 317 320 305 236 248 3 328 325 307 271 245 206 225 140 168 229 51 71 70 100 103 147 94 75 43 84 62 333 72 146 147
323 318 314 312 313 315 317 321 324 326 326 325 319 317 317 322 290 262 72 31 342 305 285 327 331 263 177 160 162 71 61 65 68 82 96 97 70 67 190 136 109 90 95 133 155
324 317 312 309 309 311 314 317 320 322 321 322 318 316 314 314 272 135 49 25 330 282 272 291 269 276 157 290 20 45 59 91 78 53 63 95 133 237 156 42 65 124 139 155 159
326 319 310 305 306 306 310 313 316 318 319 320 318 316 312 274 229 74 66 328 293 284 274 274 256 239 264 104 62 106 69 36 41 86 140 46 70 77 24 70 67 109 146 161 168
329 321 311 305 302 303 304 307 311 313 314 316 315 319 306 229 257 109 198 208 257 270 283 315 306 293 277 357 146 4 44 126 128 261 277 78 296 18 153 126 108 123 154 164 176
329 322 313 303 299 298 298 303 305 306 307 310 311 315 245 255 79 138 213 227 253 254 247 290 6 334 316 42 359 83 269 295 115 126 225 289 321 277 113 134 128 143 157 170 179
330 325 316 304 295 293 293 296 297 297 298 300 305 294 263 265 305 179 232 246 274 279 257 4 329 284 294 153 59 285 258 185 72 50 328 311 227 175 103 150 150 161 168 171 181
332 329 321 306 293 288 289 291 289 287 289 286 291 268 261 195 252 230 238 233 225 241 279 331 302 283 273 355 204 246 237 266 95 276 120 277 334 113 135 175 163 175 166 175 181
334 332 323 310 293 287 287 288 278 277 266 272 251 232 248 123 212 222 222 234 198 215 229 289 262 285 185 239 205 209 150 42 133 146 297 227 318 109 158 163 202 173 167 185 178
333 332 326 314 294 284 282 273 314 280 223 234 267 250 244 207 199 198 205 270 223 213 219 230 244 231 223 247 22 48 337 69 284 50 329 296 269 251 228 171 189 187 178 185 182
333 331 325 312 293 287 289 204 197 190 211 213 185 240 117 68 171 216 200 211 233 218 226 197 258 237 48 28 340 304 289 318 313 350 280 290 298 264 268 254 190 194 185 181 187
333 333 327 311 294 295 276 244 27 352 196 233 249 271 265 287 199 202 197 215 208 219 225 188 245 32 40 294 289 294 276 286 10 32 264 258 288 327 44 20 280 209 186 187 185
331 332 330 311 298 250 231 232 333 310 249 179 214 214 195 207 222 184 197 208 205 228 213 238 192 66 256 258 245 270 328 7 329 295 244 257 227 168 115 131 129 203 176 183 183
328 330 321 315 276 201 217 222 237 287 252 145 196 212 180 229 226 161 207 197 203 218 217 220 264 108 256 247 274 294 27 331 309 293 359 214 210 139 142 108 102 144 175 174 195
320 315 303 248 319 215 65 183 257 238 223 148 159 114 178 220 121 187 202 223 222 233 268 212 231 237 242 261 10 300 5 295 292 276 266 205 93 280 164 105 103 100 81 190 192
315 307 283 209 231 300 258 251 230 232 150 151 142 179 181 216 187 146 176 249 283 238 213 271 205 272 248 267 265 283 280 257 232 250 263 101 255 291 344 75 58 119 144 28 284
309 285 232 315 212 107 263 210 225 257 139 149 168 170 193 173 157 173 190 197 208 209 222 214 241 223 235 262 246 229 253 250 231 214 137 95 301 131 96 82 53 33 47 60 45
314 255 207 271 316 279 231 230 253 105 188 158 169 176 201 163 169 184 190 203 222 261 278 207 197 212 212 229 264 241 276 281 253 274 92 130 107 26 68 84 57 62 86 70 75
318 201 220 203 219 260 245 233 20 178 119 156 161 184 195 176 203 198 213 219 192 222 266 192 146 86 246 257 246 233 246 359 313 200 239 62 134 203 106 86 68 60 83 65 71
262 199 169 145 181 237 245 267 74 13 314 184 186 202 186 183 210 205 184 209 211 207 257 324 171 193 144 211 231 274 337 255 320 350 287 155 290 87 84 39 54 55 39 118 80
248 211 115 175 200 231 243 146 151 171 243 228 246 191 224 178 215 193 175 112 225 176 229 266 259 149 181 215 211 192 233 241 285 319 318 290 107 77 56 45 7 338 97 14 80
273 200 142 181 213 230 241 139 23 237 181 232 295 257 251 167 209 200 199 145 76 283 206 235 289 241 218 77 325 298 308 297 272 240 255 315 335 75 58 53 39 338 101 70 345
252 103 159 220 230 206 242 216 239 213 195 198 219 258 161 187 204 243 184 67 203 239 337 301 239 254 237 195 198 241 248 251 282 299 282 274 260 137 135 88 1 356 344 60 122
279 157 157 214 270 288 201 210 200 210 286 266 287 211 210 160 248 182 153 119 197 251 24 307 270 279 298 203 258 250 226 251 281 287 304 304 319 176 36 37 51 350 321 304 67
246 309 138 187 224 238 259 214 221 174 237 215 221 212 208 199 195 191 147 135 179 132 218 247 271 277 303 302 259 287 293 291 271 276 275 299 306 320 6 40 28 334 291 316 41
309 329 195 305 200 213 142 226 233 195 206 193 246 217 265 277 265 174 210 256 204 169 240 254 274 283 285 291 288 261 276 287 280 278 279 289 287 29 63 91 79 45 328 338 85
8 256 277 156 210 213 213 227 221 201 226 297 230 176 191 52 26 17 336 329 352 269 285 286 289 292 278 282 294 279 270 290 294 294 310 296 358 52 231 120 18 257 257 294 260